SCP
-0 -0 -0 -0 -0 -0 -0 0 0 0 0 0 0 -0 -0 -0 0 0 0 0 -0 0 0 0 0 0 0 0 0 0 -0 -0 -0 -0 0 -0 -0 -0 -0 -0 -0 -0 -0
-0 -0 -0 -1 -0 -0 -0 -0 -0 0 0 0 0 -0 -0 -0 0 0 0 0 0 0 0 0 0 0 0 0 0 0 0 -0 -0 0 -0 -0 -0 -0 -0 -0 -0 -0 -0
-0 -0 -0 -0 -1 -0 -0 -0 -0 -0 -0 -0 -0 -0 -0 0 0 0 0 0 0 0 0 0 0 0 0 0 0 0 0 0 0 0 -0 0 0 0 -0 -0 -0 -0 -0
-0 -0 -0 -0 -0 -0 -0 -0 -0 -0 -0 -0 -0 -0 -0 0 0 0 0 0 0 0 0 0 0 0 0 0 0 0 0 0 0 0 0 0 0 0 0 0 0 0 0
-0 -0 -0 -0 -0 -0 -0 -0 -0 -0 -0 -0 -0 -0 -0 -0 0 0 0 0 0 0 0 0 0 0 0 0 0 0 0 0 0 0 0 0 0 0 0 0 0 0 0
-0 -0 -0 -0 -0 -0 -0 -0 -0 -0 -0 -0 -0 -0 -0 -0 0 0 0 0 0 0 0 0 0 0 0 0 0 0 0 0 0 0 0 0 0 0 -0 -0 0 0 0
-0 -0 -0 -0 -0 -0 -0 -0 -0 -0 -0 -0 -0 -0 -0 0 0 0 0 0 0 0 0 0 0 0 0 0 0 0 0 0 0 0 0 0 0 -0 0 0 0 0 0
0 0 -0 -0 -0 0 -0 0 0 0 0 0 0 -0 0 0 0 0 0 0 0 0 0 0 0 0 0 0 0 0 0 0 0 0 0 0 0 0 -0 0 0 0 0
0 0 0 0 0 0 0 0 0 0 0 0 0 0 0 0 0 0 0 0 0 0 0 0 0 0 0 0 0 0 0 0 0 0 0 0 0 0 0 0 0 0 0
0 0 0 0 0 0 0 0 0 0 0 0 0 0 0 0 0 0 0 0 0 0 0 0 0 0 0 0 0 0 0 0 0 0 0 0 0 0 0 0 0 0 0
0 0 0 0 0 0 0 0 0 0 0 0 0 0 0 0 0 0 0 0 0 0 0 0 0 0 0 0 0 0 0 0 0 0 0 0 0 0 0 0 0 0 0
0 0 0 0 0 0 0 0 0 0 0 0 0 0 0 0 0 0 0 0 0 0 0 0 0 0 0 0 0 0 0 0 0 0 0 0 0 0 0 0 0 0 0
0 0 0 0 0 0 0 0 0 0 0 0 0 0 0 0 0 0 0 0 0 0 0 0 0 0 0 0 0 0 0 0 0 0 0 0 0 0 0 0 0 0 0
0 0 0 0 0 0 0 0 0 0 0 0 0 0 0 0 0 0 0 0 0 0 0 0 0 0 0 0 0 0 0 0 0 0 0 0 0 0 0 0 0 0 0
0 0 0 0 0 0 0 0 0 0 0 0 0 0 0 0 0 0 0 0 0 0 0 0 0 0 0 0 0 0 0 0 0 0 0 0 0 0 0 0 0 0 0
0 0 0 0 0 0 0 0 0 0 0 0 0 0 0 0 0 0 0 0 0 0 0 0 0 0 0 0 0 0 0 0 0 0 0 0 0 0 0 0 0 0 0
0 0 0 0 0 0 0 0 0 0 0 0 0 0 0 0 0 0 0 0 0 0 0 0 0 0 0 0 0 0 0 0 0 0 0 0 0 0 0 0 0 0 0
0 0 0 0 0 0 0 0 0 0 0 0 0 0 0 0 0 0 0 0 0 0 0 0 0 0 0 0 0 0 0 0 0 0 0 0 0 0 0 0 0 0 0
0 0 0 0 0 0 0 0 0 0 0 0 0 0 0 0 0 0 0 0 0 0 0 0 0 0 0 0 0 0 0 0 0 0 0 0 0 0 0 0 0 0 0
0 0 0 0 0 0 0 0 0 0 0 0 0 0 0 0 0 0 0 0 0 0 0 0 0 0 0 0 0 0 0 0 0 0 0 0 0 0 0 0 0 0 0
0 0 0 0 0 0 0 0 0 0 0 0 0 0 0 0 0 0 0 0 0 0 0 0 0 0 0 0 0 0 0 0 0 0 0 0 0 0 0 0 0 0 0
0 0 0 0 0 0 0 0 0 0 0 0 0 0 0 0 0 0 0 0 0 0 0 0 0 0 0 0 0 0 0 0 0 0 0 0 0 0 0 0 0 0 0
0 0 0 0 0 0 0 0 0 0 0 0 0 0 0 0 0 0 0 0 0 0 0 0 0 0 0 0 0 0 0 0 0 0 0 0 0 0 0 0 0 0 0
0 0 0 0 0 0 0 0 0 0 0 0 0 0 0 0 0 0 0 0 0 0 0 0 0 0 0 0 0 0 0 0 0 0 0 0 0 0 0 0 0 0 0
0 0 0 0 0 0 0 0 0 0 0 0 0 0 0 0 0 0 0 0 0 0 0 0 0 0 0 0 0 0 0 0 0 0 0 0 0 0 0 0 0 0 0
0 0 0 0 0 0 0 0 0 0 0 0 0 0 0 0 0 0 0 0 0 0 0 0 0 0 0 0 0 0 0 0 0 0 0 0 0 0 0 0 0 0 0
Wind_Speed_500mb
22 24 38 38 37 37 37 35 29 25 21 18 14 11 10 8 7 8 8 8 7 6 8 9 9 9 8 7 6 4 5 6 9 12 14 11 11 14 15 15 18 16 16
24 26 37 38 39 38 36 35 31 26 24 20 16 14 13 12 10 10 9 7 8 9 7 5 7 9 7 6 4 3 4 6 9 14 11 4 5 11 11 12 12 13 13
25 29 38 38 39 40 38 34 32 29 27 23 19 19 15 13 13 13 13 12 11 13 10 7 8 9 8 6 5 1 3 6 11 18 15 10 6 4 6 6 7 8 9
21 26 39 40 40 40 38 35 33 31 28 26 24 23 20 19 18 19 18 16 15 16 12 12 12 12 10 9 8 6 5 7 13 22 14 1 5 5 2 2 1 2 2
24 23 36 40 41 42 39 36 34 32 30 28 28 24 23 22 24 22 21 20 19 17 13 16 16 14 12 10 9 8 9 9 14 17 22 4 5 1 4 3 2 3 3
25 29 31 41 42 43 41 38 36 34 32 29 27 27 27 28 22 18 19 20 20 18 19 17 14 13 9 6 5 6 9 12 17 17 9 16 13 9 8 6 3 2 3
23 29 31 35 44 44 42 41 39 38 35 32 29 31 26 30 23 19 21 21 20 21 18 15 13 8 5 2 2 4 7 13 16 21 13 16 20 12 8 3 2 3 4
23 28 31 33 41 45 44 41 40 39 38 35 33 34 32 34 25 22 24 22 22 20 18 13 11 9 6 3 2 3 5 9 12 18 25 17 22 14 11 10 11 10 10
23 29 34 33 40 46 47 45 44 44 41 42 40 39 39 32 26 22 23 22 21 20 18 13 11 9 6 4 3 4 5 10 10 12 23 19 20 19 16 15 15 14 15
24 32 33 37 39 45 49 50 48 45 45 45 46 45 47 32 29 25 24 23 23 23 19 16 14 13 11 8 7 7 8 11 11 17 20 14 16 16 16 17 19 18 16
29 36 35 39 41 45 50 52 52 52 51 51 52 52 49 36 32 30 28 28 27 26 23 20 18 15 13 11 11 11 12 11 13 17 13 15 16 15 14 16 19 18 18
37 39 41 41 45 45 48 53 54 55 56 57 57 55 51 42 37 34 33 33 32 29 28 25 22 20 18 16 16 17 15 16 16 18 15 16 16 16 16 16 15 15 15
39 42 46 45 47 50 49 49 53 56 59 60 61 59 56 47 42 43 40 37 37 34 32 31 28 27 24 23 21 20 19 20 19 19 18 19 19 18 17 19 16 16 16
45 50 48 46 53 53 54 55 55 54 60 65 66 65 59 54 50 50 45 41 40 39 39 36 35 32 28 25 23 21 21 20 18 18 17 18 18 19 19 20 17 14 11
48 50 55 53 50 55 57 59 62 63 58 59 65 66 63 59 57 54 50 47 46 43 43 41 37 34 32 30 27 25 24 22 21 20 17 19 19 19 20 16 13 9 21
47 41 50 59 53 51 57 60 63 62 60 61 65 61 58 58 61 56 53 54 52 48 48 45 42 39 37 35 32 31 29 27 25 23 21 19 19 19 19 16 13 23 22
45 43 39 51 53 51 53 57 60 61 58 62 64 61 58 59 64 60 59 60 58 55 52 51 51 49 46 42 40 38 35 32 30 27 25 23 24 24 24 21 28 25 23
34 35 34 38 46 49 47 53 57 57 58 58 61 59 59 59 61 62 64 65 63 62 59 58 57 54 51 49 48 44 42 40 36 32 29 28 28 28 28 28 30 29 26
5 10 14 25 31 38 43 44 47 50 54 57 58 60 59 63 63 64 68 68 67 68 68 65 63 59 57 55 52 51 50 46 42 40 35 32 33 33 32 34 42 40 30
5 10 9 10 20 25 30 36 41 43 43 49 52 53 58 62 65 61 68 71 72 75 73 71 67 63 63 59 57 55 52 51 49 45 41 39 39 41 36 40 47 44 37
28 23 19 11 0 7 8 19 28 39 41 44 48 54 56 59 64 64 63 71 73 79 78 73 71 70 71 67 63 60 58 59 53 53 46 46 45 46 40 42 48 48 45
45 38 28 22 16 14 13 6 11 11 11 27 31 34 41 50 60 66 66 68 76 82 81 78 76 76 74 75 72 61 46 58 62 62 56 54 53 49 49 49 49 50 49
53 51 43 33 26 19 10 5 5 10 18 25 27 31 37 39 46 57 63 65 69 81 85 84 84 84 85 85 82 61 28 32 46 61 65 62 62 58 55 55 55 54 51
58 55 53 48 42 34 24 18 13 8 7 11 21 24 27 34 33 37 47 56 61 70 84 86 87 90 90 93 88 86 77 42 30 29 57 68 68 67 63 61 63 58 56
48 49 49 46 44 41 36 33 30 25 22 19 17 17 26 32 36 33 35 43 54 63 73 81 89 93 96 100 102 98 92 76 62 58 46 54 69 74 70 69 64 62 60
39 38 37 35 33 33 34 33 31 30 27 24 23 24 21 21 33 39 31 31 41 53 63 74 80 90 96 101 105 104 105 101 90 75 64 61 60 64 70 71 68 68 66
Wind_Direction_500mb
197 179 186 187 186 183 177 177 183 188 196 198 198 193 180 172 173 167 165 201 235 273 310 340 350 7 16 27 54 76 73 66 71 71 78 75 76 86 83 63 72 82 88
209 187 189 190 191 192 188 186 189 196 205 208 207 216 216 212 198 202 197 215 253 268 290 336 347 351 359 356 30 61 94 95 84 78 73 65 75 103 102 89 76 76 82
213 192 192 194 196 197 197 199 199 202 207 211 207 207 192 215 208 214 218 235 249 278 294 308 318 317 317 307 296 238 144 127 114 97 65 4 323 133 119 95 78 80 85
218 203 198 198 200 201 201 201 203 204 206 209 198 209 218 226 230 231 234 239 252 267 287 294 300 302 301 288 268 244 205 155 134 121 85 254 355 83 153 178 138 123 83
209 216 204 206 205 205 207 207 207 206 206 208 217 232 244 246 241 244 246 249 257 272 288 287 295 296 294 281 264 241 212 180 160 156 159 174 280 326 84 188 233 257 272
210 213 209 207 211 212 213 214 212 212 210 209 224 238 243 254 247 244 235 241 255 275 276 282 288 297 292 267 238 221 207 185 176 151 187 201 199 262 270 206 203 293 312
217 211 220 211 213 214 216 217 218 217 219 222 228 239 241 249 250 228 231 244 257 266 271 278 287 286 262 242 178 179 184 190 196 163 170 200 214 218 241 168 225 304 313
228 220 225 221 218 218 217 216 217 218 220 223 224 233 239 242 241 231 241 243 246 247 254 257 246 228 221 208 162 171 181 199 208 187 214 211 224 210 236 284 272 268 268
228 233 233 225 221 219 222 220 218 219 221 221 225 231 243 248 244 235 243 247 250 254 254 240 224 224 231 226 209 209 205 219 234 211 232 231 242 256 264 271 275 271 269
232 247 234 234 224 223 224 223 222 222 223 225 227 231 242 243 240 238 243 244 248 250 244 230 221 218 227 241 240 235 225 237 233 225 245 271 265 262 265 270 273 274 274
246 242 245 236 233 227 228 227 227 225 225 224 225 234 247 246 241 239 239 240 240 241 235 228 227 233 241 247 251 248 247 247 243 253 263 263 262 266 266 272 276 282 283
255 246 248 241 237 236 230 230 228 228 225 223 225 234 249 247 244 242 242 243 240 234 230 229 230 233 239 242 244 247 249 249 249 256 258 260 262 267 268 269 271 274 281
271 260 251 247 240 236 234 232 231 228 227 227 231 235 246 248 243 245 241 239 241 236 232 230 229 233 236 238 236 240 241 244 247 253 251 252 253 253 252 257 267 277 287
251 262 263 252 241 235 233 230 236 233 232 233 237 242 245 247 242 242 246 245 243 237 233 231 230 235 236 238 239 242 245 248 252 252 249 249 249 247 245 251 253 257 255
263 247 258 261 251 242 234 232 231 237 238 240 241 245 246 246 244 245 245 246 247 245 241 238 235 237 239 241 242 245 248 252 253 256 252 251 246 242 238 242 237 174 185
269 256 242 255 258 250 242 237 238 239 241 241 246 251 251 242 244 246 243 246 246 247 244 244 241 240 242 243 244 246 247 248 250 251 254 253 251 248 238 208 171 189 204
267 270 252 242 256 255 248 243 237 243 241 244 251 254 252 247 246 247 245 244 247 249 245 242 239 238 240 241 242 243 245 248 248 249 250 250 248 247 235 205 190 189 204
259 266 274 246 242 253 250 243 243 238 243 245 254 258 258 255 252 252 247 245 247 248 248 244 240 239 239 240 241 241 242 243 244 245 246 246 243 237 236 231 202 209 244
237 235 269 264 251 244 250 245 244 244 241 246 248 256 258 258 255 252 252 250 248 248 249 247 243 240 241 240 241 241 242 244 245 246 245 245 242 244 236 225 229 240 264
170 215 207 244 245 244 239 237 235 247 247 245 252 252 255 259 262 256 252 251 249 248 247 245 244 241 240 240 240 242 244 245 244 245 243 242 241 249 239 231 235 241 246
98 110 127 143 116 220 227 237 244 247 254 257 258 260 259 260 263 263 257 254 252 252 252 250 246 240 238 235 233 236 238 242 243 243 242 240 239 245 246 239 238 241 243
74 73 85 97 102 106 156 184 223 230 247 255 267 271 267 265 264 267 266 259 255 254 253 251 246 240 234 234 229 232 234 238 238 238 239 240 243 241 244 240 240 238 240
61 60 59 65 74 80 86 144 204 229 252 264 270 272 271 275 266 267 272 270 263 259 257 253 250 245 242 238 236 227 215 227 235 237 237 239 242 242 243 241 240 241 240
54 57 55 51 51 51 54 57 53 37 352 296 287 280 290 292 288 281 277 276 272 266 264 261 256 249 246 241 238 233 231 242 221 228 234 235 238 242 241 241 241 239 238
47 44 45 45 47 47 42 38 32 24 5 351 343 318 289 293 296 297 287 277 273 271 268 266 262 256 250 247 244 243 235 231 235 242 238 234 233 239 241 241 241 239 238
38 34 31 30 27 26 24 26 24 21 15 1 348 334 316 302 307 313 311 295 283 271 267 268 266 264 260 255 252 247 244 236 229 232 236 240 240 241 242 242 239 238 237
Wind_Speed_850mb
22 24 38 38 37 37 37 35 29 25 21 18 14 11 10 8 7 8 8 8 7 6 8 9 9 9 8 7 6 4 5 6 9 12 14 11 11 14 15 15 18 16 16
24 26 37 38 39 38 36 35 31 26 24 20 16 14 13 12 10 10 9 7 8 9 7 5 7 9 7 6 4 3 4 6 9 14 11 4 5 11 11 12 12 13 13
25 29 38 38 39 40 38 34 32 29 27 23 19 19 15 13 13 13 13 12 11 13 10 7 8 9 8 6 5 1 3 6 11 18 15 10 6 4 6 6 7 8 9
21 26 39 40 40 40 38 35 33 31 28 26 24 23 20 19 18 19 18 16 15 16 12 12 12 12 10 9 8 6 5 7 13 22 14 1 5 5 2 2 1 2 2
24 23 36 40 41 42 39 36 34 32 30 28 28 24 23 22 24 22 21 20 19 17 13 16 16 14 12 10 9 8 9 9 14 17 22 4 5 1 4 3 2 3 3
25 29 31 41 42 43 41 38 36 34 32 29 27 27 27 28 22 18 19 20 20 18 19 17 14 13 9 6 5 6 9 12 17 17 9 16 13 9 8 6 3 2 3
23 29 31 35 44 44 42 41 39 38 35 32 29 31 26 30 23 19 21 21 20 21 18 15 13 8 5 2 2 4 7 13 16 21 13 16 20 12 8 3 2 3 4
23 28 31 33 41 45 44 41 40 39 38 35 33 34 32 34 25 22 24 22 22 20 18 13 11 9 6 3 2 3 5 9 12 18 25 17 22 14 11 10 11 10 10
23 29 34 33 40 46 47 45 44 44 41 42 40 39 39 32 26 22 23 22 21 20 18 13 11 9 6 4 3 4 5 10 10 12 23 19 20 19 16 15 15 14 15
24 32 33 37 39 45 49 50 48 45 45 45 46 45 47 32 29 25 24 23 23 23 19 16 14 13 11 8 7 7 8 11 11 17 20 14 16 16 16 17 19 18 16
29 36 35 39 41 45 50 52 52 52 51 51 52 52 49 36 32 30 28 28 27 26 23 20 18 15 13 11 11 11 12 11 13 17 13 15 16 15 14 16 19 18 18
37 39 41 41 45 45 48 53 54 55 56 57 57 55 51 42 37 34 33 33 32 29 28 25 22 20 18 16 16 17 15 16 16 18 15 16 16 16 16 16 15 15 15
39 42 46 45 47 50 49 49 53 56 59 60 61 59 56 47 42 43 40 37 37 34 32 31 28 27 24 23 21 20 19 20 19 19 18 19 19 18 17 19 16 16 16
45 50 48 46 53 53 54 55 55 54 60 65 66 65 59 54 50 50 45 41 40 39 39 36 35 32 28 25 23 21 21 20 18 18 17 18 18 19 19 20 17 14 11
48 50 55 53 50 55 57 59 62 63 58 59 65 66 63 59 57 54 50 47 46 43 43 41 37 34 32 30 27 25 24 22 21 20 17 19 19 19 20 16 13 9 21
47 41 50 59 53 51 57 60 63 62 60 61 65 61 58 58 61 56 53 54 52 48 48 45 42 39 37 35 32 31 29 27 25 23 21 19 19 19 19 16 13 23 22
45 43 39 51 53 51 53 57 60 61 58 62 64 61 58 59 64 60 59 60 58 55 52 51 51 49 46 42 40 38 35 32 30 27 25 23 24 24 24 21 28 25 23
34 35 34 38 46 49 47 53 57 57 58 58 61 59 59 59 61 62 64 65 63 62 59 58 57 54 51 49 48 44 42 40 36 32 29 28 28 28 28 28 30 29 26
5 10 14 25 31 38 43 44 47 50 54 57 58 60 59 63 63 64 68 68 67 68 68 65 63 59 57 55 52 51 50 46 42 40 35 32 33 33 32 34 42 40 30
5 10 9 10 20 25 30 36 41 43 43 49 52 53 58 62 65 61 68 71 72 75 73 71 67 63 63 59 57 55 52 51 49 45 41 39 39 41 36 40 47 44 37
28 23 19 11 0 7 8 19 28 39 41 44 48 54 56 59 64 64 63 71 73 79 78 73 71 70 71 67 63 60 58 59 53 53 46 46 45 46 40 42 48 48 45
45 38 28 22 16 14 13 6 11 11 11 27 31 34 41 50 60 66 66 68 76 82 81 78 76 76 74 75 72 61 46 58 62 62 56 54 53 49 49 49 49 50 49
53 51 43 33 26 19 10 5 5 10 18 25 27 31 37 39 46 57 63 65 69 81 85 84 84 84 85 85 82 61 28 32 46 61 65 62 62 58 55 55 55 54 51
58 55 53 48 42 34 24 18 13 8 7 11 21 24 27 34 33 37 47 56 61 70 84 86 87 90 90 93 88 86 77 42 30 29 57 68 68 67 63 61 63 58 56
48 49 49 46 44 41 36 33 30 25 22 19 17 17 26 32 36 33 35 43 54 63 73 81 89 93 96 100 102 98 92 76 62 58 46 54 69 74 70 69 64 62 60
39 38 37 35 33 33 34 33 31 30 27 24 23 24 21 21 33 39 31 31 41 53 63 74 80 90 96 101 105 104 105 101 90 75 64 61 60 64 70 71 68 68 66
Wind_Direction_850mb
197 179 186 187 186 183 177 177 183 188 196 198 198 193 180 172 173 167 165 201 235 273 310 340 350 7 16 27 54 76 73 66 71 71 78 75 76 86 83 63 72 82 88
209 187 189 190 191 192 188 186 189 196 205 208 207 216 216 212 198 202 197 215 253 268 290 336 347 351 359 356 30 61 94 95 84 78 73 65 75 103 102 89 76 76 82
213 192 192 194 196 197 197 199 199 202 207 211 207 207 192 215 208 214 218 235 249 278 294 308 318 317 317 307 296 238 144 127 114 97 65 4 323 133 119 95 78 80 85
218 203 198 198 200 201 201 201 203 204 206 209 198 209 218 226 230 231 234 239 252 267 287 294 300 302 301 288 268 244 205 155 134 121 85 254 355 83 153 178 138 123 83
209 216 204 206 205 205 207 207 207 206 206 208 217 232 244 246 241 244 246 249 257 272 288 287 295 296 294 281 264 241 212 180 160 156 159 174 280 326 84 188 233 257 272
210 213 209 207 211 212 213 214 212 212 210 209 224 238 243 254 247 244 235 241 255 275 276 282 288 297 292 267 238 221 207 185 176 151 187 201 199 262 270 206 203 293 312
217 211 220 211 213 214 216 217 218 217 219 222 228 239 241 249 250 228 231 244 257 266 271 278 287 286 262 242 178 179 184 190 196 163 170 200 214 218 241 168 225 304 313
228 220 225 221 218 218 217 216 217 218 220 223 224 233 239 242 241 231 241 243 246 247 254 257 246 228 221 208 162 171 181 199 208 187 214 211 224 210 236 284 272 268 268
228 233 233 225 221 219 222 220 218 219 221 221 225 231 243 248 244 235 243 247 250 254 254 240 224 224 231 226 209 209 205 219 234 211 232 231 242 256 264 271 275 271 269
232 247 234 234 224 223 224 223 222 222 223 225 227 231 242 243 240 238 243 244 248 250 244 230 221 218 227 241 240 235 225 237 233 225 245 271 265 262 265 270 273 274 274
246 242 245 236 233 227 228 227 227 225 225 224 225 234 247 246 241 239 239 240 240 241 235 228 227 233 241 247 251 248 247 247 243 253 263 263 262 266 266 272 276 282 283
255 246 248 241 237 236 230 230 228 228 225 223 225 234 249 247 244 242 242 243 240 234 230 229 230 233 239 242 244 247 249 249 249 256 258 260 262 267 268 269 271 274 281
271 260 251 247 240 236 234 232 231 228 227 227 231 235 246 248 243 245 241 239 241 236 232 230 229 233 236 238 236 240 241 244 247 253 251 252 253 253 252 257 267 277 287
251 262 263 252 241 235 233 230 236 233 232 233 237 242 245 247 242 242 246 245 243 237 233 231 230 235 236 238 239 242 245 248 252 252 249 249 249 247 245 251 253 257 255
263 247 258 261 251 242 234 232 231 237 238 240 241 245 246 246 244 245 245 246 247 245 241 238 235 237 239 241 242 245 248 252 253 256 252 251 246 242 238 242 237 174 185
269 256 242 255 258 250 242 237 238 239 241 241 246 251 251 242 244 246 243 246 246 247 244 244 241 240 242 243 244 246 247 248 250 251 254 253 251 248 238 208 171 189 204
267 270 252 242 256 255 248 243 237 243 241 244 251 254 252 247 246 247 245 244 247 249 245 242 239 238 240 241 242 243 245 248 248 249 250 250 248 247 235 205 190 189 204
259 266 274 246 242 253 250 243 243 238 243 245 254 258 258 255 252 252 247 245 247 248 248 244 240 239 239 240 241 241 242 243 244 245 246 246 243 237 236 231 202 209 244
237 235 269 264 251 244 250 245 244 244 241 246 248 256 258 258 255 252 252 250 248 248 249 247 243 240 241 240 241 241 242 244 245 246 245 245 242 244 236 225 229 240 264
170 215 207 244 245 244 239 237 235 247 247 245 252 252 255 259 262 256 252 251 249 248 247 245 244 241 240 240 240 242 244 245 244 245 243 242 241 249 239 231 235 241 246
98 110 127 143 116 220 227 237 244 247 254 257 258 260 259 260 263 263 257 254 252 252 252 250 246 240 238 235 233 236 238 242 243 243 242 240 239 245 246 239 238 241 243
74 73 85 97 102 106 156 184 223 230 247 255 267 271 267 265 264 267 266 259 255 254 253 251 246 240 234 234 229 232 234 238 238 238 239 240 243 241 244 240 240 238 240
61 60 59 65 74 80 86 144 204 229 252 264 270 272 271 275 266 267 272 270 263 259 257 253 250 245 242 238 236 227 215 227 235 237 237 239 242 242 243 241 240 241 240
54 57 55 51 51 51 54 57 53 37 352 296 287 280 290 292 288 281 277 276 272 266 264 261 256 249 246 241 238 233 231 242 221 228 234 235 238 242 241 241 241 239 238
47 44 45 45 47 47 42 38 32 24 5 351 343 318 289 293 296 297 287 277 273 271 268 266 262 256 250 247 244 243 235 231 235 242 238 234 233 239 241 241 241 239 238
38 34 31 30 27 26 24 26 24 21 15 1 348 334 316 302 307 313 311 295 283 271 267 268 266 264 260 255 252 247 244 236 229 232 236 240 240 241 242 242 239 238 237